TimeCDT,TemperatureF,Dew PointF,Humidity,Sea Level PressureIn,VisibilityMPH,Wind Direction,Wind SpeedMPH,Gust SpeedMPH,PrecipitationIn,Events,Conditions,WindDirDegrees,DateUTC
12:54 AM,32.0,15.1,50,29.90,10.0,WNW,9.2,-,N/A,,Scattered Clouds,300,2012-11-01 05:54:00
1:54 AM,36.0,16.0,44,29.88,10.0,NW,6.9,-,N/A,,Overcast,310,2012-11-01 06:54:00
2:54 AM,36.0,16.0,44,29.88,10.0,WNW,5.8,-,N/A,,Overcast,300,2012-11-01 07:54:00
3:54 AM,34.0,18.0,52,29.87,10.0,WNW,4.6,-,N/A,,Overcast,300,2012-11-01 08:54:00
4:54 AM,33.1,17.1,52,29.87,10.0,WNW,6.9,-,N/A,,Partly Cloudy,290,2012-11-01 09:54:00
5:54 AM,36.0,18.0,48,29.88,10.0,WNW,6.9,-,N/A,,Overcast,300,2012-11-01 10:54:00
8:54 AM,37.9,21.9,53,29.90,10.0,NW,6.9,-,N/A,,Overcast,310,2012-11-01 13:54:00
9:09 AM,39.2,21.2,49,29.86,10.0,WNW,5.8,-,N/A,,Overcast,290,2012-11-01 14:09:00
9:38 AM,39.2,23.0,52,29.86,10.0,NNW,13.8,18.4,N/A,,Overcast,340,2012-11-01 14:38:00
9:46 AM,39.2,24.8,56,29.87,10.0,NNW,10.4,-,N/A,,Overcast,330,2012-11-01 14:46:00
9:54 AM,39.0,24.1,55,29.91,10.0,NNW,11.5,-,N/A,,Overcast,340,2012-11-01 14:54:00
10:54 AM,39.9,27.0,60,29.91,10.0,NNW,16.1,-,0.00,,Overcast,330,2012-11-01 15:54:00
11:42 AM,42.8,30.2,61,29.87,10.0,NNW,17.3,-,N/A,,Overcast,330,2012-11-01 16:42:00
12:07 PM,42.8,30.2,61,29.87,10.0,NNW,15.0,-,N/A,,Overcast,330,2012-11-01 17:07:00
1:54 PM,43.0,28.9,58,29.89,10.0,NNW,12.7,-,N/A,,Overcast,330,2012-11-01 18:54:00
3:54 PM,41.0,32.0,70,29.91,10.0,NNW,10.4,-,N/A,,Overcast,340,2012-11-01 20:54:00
4:54 PM,41.0,30.9,67,29.91,10.0,NNW,15.0,-,N/A,,Overcast,330,2012-11-01 21:54:00
5:54 PM,37.0,30.9,79,29.93,10.0,NNW,12.7,-,0.00,,Mostly Cloudy,330,2012-11-01 22:54:00
6:54 PM,36.0,30.0,79,29.95,10.0,NNW,11.5,-,N/A,,Scattered Clouds,330,2012-11-01 23:54:00
7:54 PM,33.1,30.0,89,29.97,10.0,NNW,9.2,-,N/A,,Clear,330,2012-11-02 00:54:00
8:54 PM,33.1,28.9,85,29.97,10.0,NNW,10.4,-,N/A,,Clear,340,2012-11-02 01:54:00
9:54 PM,32.0,28.9,88,29.99,10.0,NNW,9.2,-,N/A,,Clear,330,2012-11-02 02:54:00
10:54 PM,30.9,27.0,85,29.99,10.0,NNW,8.1,-,N/A,,Clear,340,2012-11-02 03:54:00
11:54 PM,30.0,27.0,88,30.00,10.0,NNW,9.2,-,N/A,,Clear,330,2012-11-02 04:54:00